Tracking 19246 objects as of 20-Aug-2018
HD Live streaming from Space Station
objects crossing your sky now

FLOCK 3P 11

Track FLOCK 3P 11 now!
10-day predictions
FLOCK 3P 11 is classified as:


NORAD ID: 41975
Int'l Code: 2017-008AD
Perigee: 492.4 km
Apogee: 506.0 km
Inclination: 97.4 °
Period: 94.5 minutes
Semi major axis: 6870 km
RCS: Unknown
Launch date: February 15, 2017
Source: United States (US)
Launch site: SRIHARIKOTA (SRI)
aabbcc
Your satellite tracking list
Your tracking list is empty




NASA's NSSDC Master Catalog

Two Line Element Set (TLE):
1 41975U 17008AD  18232.15145916  .00001252  00000-0  53703-4 0  9992
2 41975  97.4457 296.6327 0009884 121.6271 238.5932 15.24565812 83549
Source of the keplerian elements: AFSPC